Погода в Максимовке

Россия / Самарская область     52°58′59″N   51°08′05″E
темп.,
°C
ветер,
м/с
пор.,
м/с
влажн.,
%
обл.,
%
осадки,
мм/ч
давл.,
гПа
погр.,
м
9 марта, вт
вт901:00−4зюз6138999 0.8 1004473
04:00−9зюз499150 0.8 1007145
07:00−12з239353 0.0 100821
10:00−9зсз009177 0.0 101042
13:00−6всв1186100 0.0 1010261
16:00−6св2288100 0.0 1009258
19:00−9с3392100 0.0 100846
22:00−10ссз4692100 0.0 1008114
10 марта, ср
ср1001:00−12ссз4992100 0.0 1007206
04:00−15зсз4895100 0.0 1008143
07:00−15зсз499651 0.1 1009254
10:00−14зсз6109272 0.1 1011431
13:00−12зсз6989100 0.1 1012688
16:00−13сз71090100 0.3 1014744
19:00−15сз61093100 0.2 1015522
22:00−17сз51094100 0.4 1017453
11 марта, чт
чт1101:00−20сз4109497 0.1 1019292
04:00−25сз479558 0.1 1021125
07:00−27сз45970 0.0 102381
10:00−22сз47949 0.0 1024272
13:00−18зсз469168 0.0 1025449
16:00−15зсз478885 0.0 1024664
19:00−17з3497100 0.1 102566
22:00−20зсз339784 0.1 102721
12 марта, пт
пт1201:00−21з33960 0.0 102720
04:00−20з349814 0.0 102951
07:00−20з349989 0.1 103051
10:00−15зсз359591 0.1 1031216
13:00−10зсз348878 0.0 1032344
16:00−9зсз368953 0.0 1032419
19:00−14з33956 0.0 103323
22:00−17з22934 0.0 103520
13 марта, сб
сб1301:00−17з22940 0.0 103520
04:00−18з22920 0.0 103620
07:00−19юз12960 0.0 103720
10:00−13юз22870 0.0 1037129
13:00−10юз348044 0.0 1037304
16:00−10юз348522 0.0 1036235
19:00−15ююз23870 0.0 103520
22:00−17юз23850 0.0 103520